"read_dt","SO2 (ppb)","flags","PMT voltage (V)","lamp voltage (V)","lamp intensity (Hz)","internal temp (C)","react chamber temp (C)","sample flow (l/min)","pres (mmHg)","SO2 bkg (ppb)","SO2 coefficient"
2014-12-06 00:00:00,2381E-3,5C000000,-0724,0833,12116,024.3,045.4,0.461,754.9,01.17,0.508
2014-12-06 00:01:00,2216E-3,5C000000,-0724,0833,12054,024.3,045.3,0.461,754.9,01.17,0.508
2014-12-06 00:02:00,2341E-3,5C000000,-0724,0834,12060,024.3,045.4,0.461,754.9,01.17,0.508
2014-12-06 00:03:00,2203E-3,5C000000,-0724,0836,12003,024.3,045.3,0.461,754.9,01.17,0.508
2014-12-06 00:04:00,2246E-3,5C000000,-0724,0834,12201,024.3,045.3,0.461,754.9,01.17,0.508
2014-12-06 00:05:00,2191E-3,5C000000,-0724,0838,12506,024.3,045.3,0.460,754.9,01.17,0.508
2014-12-06 00:06:00,2188E-3,5C000000,-0724,0836,12193,024.3,045.3,0.461,754.9,01.17,0.508
2014-12-06 00:07:00,2381E-3,5C000000,-0724,0838,12430,024.3,045.3,0.460,754.9,01.17,0.508
2014-12-06 00:08:00,2230E-3,5C000000,-0724,0835,12338,024.3,045.3,0.460,754.9,01.17,0.508
2014-12-06 00:09:00,2230E-3,5C000000,-0724,0839,12440,024.3,045.3,0.460,754.9,01.17,0.508
2014-12-06 00:10:00,2142E-3,5C000000,-0724,0833,12157,024.3,045.3,0.460,754.8,01.17,0.508
2014-12-06 00:11:00,2321E-3,5C000000,-0724,0833,12177,024.3,045.3,0.461,754.8,01.17,0.508
2014-12-06 00:12:00,2162E-3,5C000000,-0724,0833,12158,024.3,045.4,0.461,754.8,01.17,0.508
2014-12-06 00:13:00,2278E-3,5C000000,-0724,0836,12326,024.3,045.3,0.461,754.9,01.17,0.508
2014-12-06 00:14:00,2003E-3,5C000000,-0724,0833,12244,024.3,045.3,0.461,754.9,01.17,0.508
2014-12-06 00:15:00,2297E-3,5C000000,-0724,0833,12299,024.3,045.4,0.461,754.8,01.17,0.508
2014-12-06 00:16:00,2288E-3,5C000000,-0724,0833,11093,024.3,045.4,0.461,754.8,01.17,0.508
2014-12-06 00:17:00,2184E-3,5C000000,-0724,0833,12340,024.3,045.4,0.461,754.9,01.17,0.508
2014-12-06 00:18:00,2266E-3,5C000000,-0724,0832,12156,024.3,045.3,0.461,754.9,01.17,0.508
2014-12-06 00:19:00,2456E-3,5C000000,-0724,0833,12214,024.3,045.3,0.461,754.8,01.17,0.508
2014-12-06 00:20:00,2097E-3,5C000000,-0724,0833,12059,024.3,045.3,0.461,754.8,01.17,0.508
2014-12-06 00:21:00,2234E-3,5C000000,-0724,0833,12233,024.3,045.4,0.461,754.8,01.17,0.508
2014-12-06 00:22:00,2250E-3,5C000000,-0724,0832,12170,024.3,045.4,0.461,754.8,01.17,0.508
2014-12-06 00:23:00,2259E-3,5C000000,-0724,0833,12228,024.3,045.3,0.461,754.8,01.17,0.508
2014-12-06 00:24:00,2167E-3,5C000000,-0724,0833,12306,024.3,045.3,0.461,754.8,01.17,0.508
2014-12-06 00:25:00,2265E-3,5C000000,-0724,0832,12251,024.3,045.4,0.461,754.8,01.17,0.508
2014-12-06 00:26:00,2212E-3,5C000000,-0724,0833,12324,024.3,045.4,0.461,754.8,01.17,0.508
2014-12-06 00:27:00,2245E-3,5C000000,-0724,0833,12127,024.3,045.4,0.461,754.8,01.17,0.508
2014-12-06 00:28:00,2387E-3,5C000000,-0724,0833,12121,024.3,045.3,0.461,754.8,01.17,0.508
2014-12-06 00:29:00,2282E-3,5C000000,-0724,0833,12062,024.3,045.3,0.461,754.8,01.17,0.508
2014-12-06 00:30:00,2408E-3,5C000000,-0724,0833,12219,024.3,045.3,0.461,754.8,01.17,0.508
2014-12-06 00:31:00,2219E-3,5C000000,-0724,0832,12086,024.3,045.3,0.461,754.8,01.17,0.508
2014-12-06 00:32:00,2397E-3,5C000000,-0724,0832,12086,024.3,045.4,0.460,754.7,01.17,0.508
2014-12-06 00:33:00,2178E-3,5C000000,-0724,0834,12236,024.3,045.3,0.460,754.8,01.17,0.508
2014-12-06 00:34:00,2330E-3,5C000000,-0724,0833,12242,024.3,045.4,0.460,754.7,01.17,0.508
2014-12-06 00:35:00,2229E-3,5C000000,-0724,0833,12048,024.3,045.4,0.461,754.7,01.17,0.508
2014-12-06 00:36:00,2285E-3,5C000000,-0724,0833,12117,024.3,045.3,0.461,754.7,01.17,0.508
2014-12-06 00:37:00,2155E-3,5C000000,-0724,0833,12303,024.3,045.3,0.461,754.7,01.17,0.508
2014-12-06 00:38:00,2198E-3,5C000000,-0724,0833,12232,024.3,045.3,0.461,754.7,01.17,0.508
2014-12-06 00:39:00,2295E-3,5C000000,-0724,0832,12230,024.3,045.4,0.461,754.7,01.17,0.508
2014-12-06 00:40:00,2290E-3,5C000000,-0724,0833,12129,024.3,045.4,0.461,754.7,01.17,0.508
2014-12-06 00:41:00,2073E-3,5C000000,-0724,0833,12255,024.3,045.4,0.461,754.7,01.17,0.508
2014-12-06 00:42:00,2231E-3,5C000000,-0724,0833,12232,024.3,045.4,0.461,754.7,01.17,0.508
2014-12-06 00:43:00,2103E-3,5C000000,-0724,0832,12084,024.2,045.4,0.461,754.7,01.17,0.508
2014-12-06 00:44:00,2173E-3,5C000000,-0724,0833,12102,024.2,045.3,0.461,754.7,01.17,0.508
2014-12-06 00:45:00,2332E-3,5C000000,-0724,0833,12258,024.2,045.4,0.461,754.7,01.17,0.508
2014-12-06 00:46:00,2299E-3,5C000000,-0724,0834,12303,024.3,045.4,0.461,754.7,01.17,0.508
2014-12-06 00:47:00,2409E-3,5C000000,-0724,0833,12225,024.2,045.3,0.461,754.7,01.17,0.508
2014-12-06 00:48:00,2238E-3,5C000000,-0724,0833,12148,024.3,045.4,0.461,754.7,01.17,0.508
2014-12-06 00:49:00,2336E-3,5C000000,-0724,0833,12105,024.2,045.4,0.461,754.7,01.17,0.508
2014-12-06 00:50:00,2302E-3,5C000000,-0724,0833,12256,024.3,045.4,0.461,754.6,01.17,0.508
2014-12-06 00:51:00,2377E-3,5C000000,-0724,0833,12282,024.2,045.3,0.461,754.6,01.17,0.508
2014-12-06 00:52:00,2412E-3,5C000000,-0724,0832,12321,024.2,045.4,0.461,754.6,01.17,0.508
2014-12-06 00:53:00,2255E-3,5C000000,-0724,0833,12225,024.2,045.4,0.461,754.6,01.17,0.508
2014-12-06 00:54:00,2290E-3,5C000000,-0724,0832,12129,024.2,045.4,0.461,754.6,01.17,0.508
2014-12-06 00:55:00,2403E-3,5C000000,-0724,0833,12261,024.2,045.3,0.461,754.6,01.17,0.508
2014-12-06 00:56:00,2264E-3,5C000000,-0724,0833,12223,024.2,045.3,0.461,754.6,01.17,0.508
2014-12-06 00:57:00,2183E-3,5C000000,-0724,0833,12299,024.2,045.4,0.461,754.6,01.17,0.508
2014-12-06 00:58:00,2391E-3,5C000000,-0724,0834,12290,024.2,045.3,0.461,754.6,01.17,0.508
2014-12-06 00:59:00,2257E-3,5C000000,-0724,0833,12055,024.2,045.4,0.461,754.6,01.17,0.508
2014-12-06 01:00:00,2260E-3,5C000000,-0724,0833,12183,024.2,045.3,0.461,754.6,01.17,0.508
2014-12-06 01:01:00,2391E-3,5C000000,-0724,0833,12411,024.3,045.3,0.461,754.6,01.17,0.508
2014-12-06 01:02:00,2364E-3,5C000000,-0724,0833,12093,024.2,045.4,0.461,754.6,01.17,0.508
2014-12-06 01:03:00,2151E-3,5C000000,-0724,0833,12247,024.2,045.3,0.461,754.6,01.17,0.508
2014-12-06 01:04:00,2321E-3,5C000000,-0724,0832,12059,024.2,045.3,0.461,754.6,01.17,0.508
2014-12-06 01:05:00,2357E-3,5C000000,-0724,0832,12129,024.2,045.3,0.461,754.6,01.17,0.508
2014-12-06 01:06:00,2229E-3,5C000000,-0724,0833,12219,024.2,045.3,0.461,754.6,01.17,0.508
2014-12-06 01:07:00,2266E-3,5C000000,-0724,0833,12311,024.2,045.3,0.461,754.6,01.17,0.508
2014-12-06 01:08:00,2203E-3,5C000000,-0724,0834,12204,024.3,045.3,0.461,754.6,01.17,0.508
2014-12-06 01:09:00,2160E-3,5C000000,-0724,0833,12227,024.2,045.3,0.461,754.6,01.17,0.508
2014-12-06 01:10:00,2310E-3,5C000000,-0724,0833,12144,024.2,045.3,0.461,754.6,01.17,0.508
2014-12-06 01:11:00,2246E-3,5C000000,-0724,0834,12251,024.2,045.3,0.461,754.6,01.17,0.508
2014-12-06 01:12:00,2403E-3,5C000000,-0724,0833,12115,024.2,045.3,0.461,754.6,01.17,0.508
2014-12-06 01:13:00,2255E-3,5C000000,-0724,0834,12229,024.2,045.3,0.461,754.6,01.17,0.508
2014-12-06 01:14:00,2321E-3,5C000000,-0724,0833,12287,024.2,045.3,0.461,754.6,01.17,0.508
2014-12-06 01:15:00,2280E-3,5C000000,-0724,0833,12077,024.2,045.3,0.461,754.6,01.17,0.508
2014-12-06 01:16:00,2351E-3,5C000000,-0724,0833,12138,024.2,045.3,0.461,754.6,01.17,0.508
2014-12-06 01:17:00,2313E-3,5C000000,-0724,0832,12107,024.2,045.4,0.461,754.6,01.17,0.508
2014-12-06 01:18:00,2217E-3,5C000000,-0724,0832,12194,024.2,045.3,0.461,754.6,01.17,0.508
2014-12-06 01:19:00,2403E-3,5C000000,-0724,0834,12352,024.2,045.3,0.461,754.6,01.17,0.508
2014-12-06 01:20:00,2279E-3,5C000000,-0724,0833,12169,024.2,045.3,0.461,754.6,01.17,0.508
2014-12-06 01:21:00,2271E-3,5C000000,-0724,0832,12187,024.2,045.3,0.461,754.6,01.17,0.508
2014-12-06 01:22:00,2270E-3,5C000000,-0724,0833,12224,024.2,045.3,0.461,754.6,01.17,0.508
2014-12-06 01:23:00,2250E-3,5C000000,-0724,0832,12188,024.2,045.3,0.461,754.6,01.17,0.508
2014-12-06 01:24:00,2273E-3,5C000000,-0724,0832,12058,024.2,045.4,0.461,754.6,01.17,0.508
2014-12-06 01:25:00,2349E-3,5C000000,-0724,0833,12289,024.2,045.4,0.461,754.6,01.17,0.508
2014-12-06 01:26:00,2458E-3,5C000000,-0724,0833,12203,024.2,045.3,0.461,754.6,01.17,0.508
2014-12-06 01:27:00,2322E-3,5C000000,-0724,0833,12256,024.2,045.3,0.461,754.6,01.17,0.508
2014-12-06 01:28:00,2386E-3,5C000000,-0724,0833,12253,024.2,045.3,0.461,754.6,01.17,0.508
2014-12-06 01:29:00,2196E-3,5C000000,-0724,0833,12331,024.2,045.3,0.461,754.6,01.17,0.508
2014-12-06 01:30:00,2345E-3,5C000000,-0724,0833,12248,024.2,045.3,0.461,754.6,01.17,0.508
2014-12-06 01:31:00,2230E-3,5C000000,-0724,0833,12244,024.2,045.4,0.461,754.6,01.17,0.508
2014-12-06 01:32:00,2372E-3,5C000000,-0724,0833,12268,024.2,045.3,0.461,754.6,01.17,0.508
2014-12-06 01:33:00,2252E-3,5C000000,-0724,0833,12171,024.2,045.3,0.461,754.6,01.17,0.508
2014-12-06 01:34:00,2307E-3,5C000000,-0724,0833,12202,024.2,045.3,0.461,754.6,01.17,0.508
2014-12-06 01:35:00,2250E-3,5C000000,-0724,0833,12191,024.2,045.3,0.461,754.6,01.17,0.508
2014-12-06 01:36:00,2329E-3,5C000000,-0724,0833,12129,024.2,045.3,0.461,754.6,01.17,0.508
2014-12-06 01:37:00,2233E-3,5C000000,-0724,0833,12255,024.2,045.3,0.461,754.6,01.17,0.508
2014-12-06 01:38:00,2304E-3,5C000000,-0724,0833,12117,024.2,045.4,0.461,754.6,01.17,0.508
2014-12-06 01:39:00,2195E-3,5C000000,-0724,0834,12223,024.2,045.3,0.461,754.6,01.17,0.508
2014-12-06 01:40:00,2305E-3,5C000000,-0724,0833,12105,024.2,045.4,0.461,754.6,01.17,0.508
2014-12-06 01:41:00,2280E-3,5C000000,-0724,0833,12228,024.2,045.4,0.461,754.6,01.17,0.508
2014-12-06 01:42:00,2230E-3,5C000000,-0724,0832,12102,024.2,045.4,0.461,754.6,01.17,0.508
2014-12-06 01:43:00,2214E-3,5C000000,-0724,0833,12239,024.2,045.3,0.461,754.6,01.17,0.508
2014-12-06 01:44:00,2297E-3,5C000000,-0724,0833,12173,024.2,045.3,0.461,754.6,01.17,0.508
2014-12-06 01:45:00,2210E-3,5C000000,-0724,0833,12251,024.2,045.3,0.461,754.6,01.17,0.508
2014-12-06 01:46:00,2341E-3,5C000000,-0724,0833,12105,024.2,045.3,0.461,754.6,01.17,0.508
2014-12-06 01:47:00,2200E-3,5C000000,-0724,0833,12287,024.2,045.4,0.461,754.6,01.17,0.508
2014-12-06 01:48:00,2149E-3,5C000000,-0724,0833,12047,024.2,045.4,0.461,754.5,01.17,0.508
2014-12-06 01:49:00,2226E-3,5C000000,-0724,0833,12342,024.1,045.3,0.461,754.5,01.17,0.508
2014-12-06 01:50:00,2173E-3,5C000000,-0724,0833,12196,024.2,045.3,0.461,754.5,01.17,0.508
2014-12-06 01:51:00,2270E-3,5C000000,-0724,0833,12270,024.2,045.3,0.461,754.6,01.17,0.508
2014-12-06 01:52:00,2217E-3,5C000000,-0724,0833,12168,024.2,045.3,0.461,754.6,01.17,0.508
2014-12-06 01:53:00,2181E-3,5C000000,-0724,0832,12305,024.2,045.3,0.461,754.6,01.17,0.508
2014-12-06 01:54:00,2292E-3,5C000000,-0724,0833,12153,024.2,045.3,0.461,754.6,01.17,0.508
2014-12-06 01:55:00,2191E-3,5C000000,-0724,0834,12136,024.1,045.3,0.461,754.6,01.17,0.508
2014-12-06 01:56:00,2272E-3,5C000000,-0724,0833,12211,024.2,045.4,0.461,754.5,01.17,0.508
2014-12-06 01:57:00,2258E-3,5C000000,-0724,0833,11988,024.2,045.4,0.461,754.5,01.17,0.508
2014-12-06 01:58:00,2324E-3,5C000000,-0724,0833,12159,024.2,045.3,0.461,754.6,01.17,0.508
2014-12-06 01:59:00,2283E-3,5C000000,-0724,0833,12403,024.1,045.3,0.461,754.6,01.17,0.508
2014-12-06 02:00:00,2269E-3,5C000000,-0724,0833,12239,024.2,045.4,0.461,754.5,01.17,0.508
2014-12-06 02:01:00,2319E-3,5C000000,-0724,0834,12216,024.2,045.4,0.461,754.6,01.17,0.508
2014-12-06 02:02:00,2242E-3,5C000000,-0724,0833,12028,024.2,045.3,0.461,754.5,01.17,0.508
2014-12-06 02:03:00,2254E-3,5C000000,-0724,0833,12198,024.1,045.3,0.461,754.6,01.17,0.508
2014-12-06 02:04:00,2317E-3,5C000000,-0724,0833,12079,024.2,045.3,0.461,754.5,01.17,0.508
2014-12-06 02:05:00,2275E-3,5C000000,-0724,0833,12236,024.2,045.3,0.461,754.6,01.17,0.508
2014-12-06 02:06:00,2193E-3,5C000000,-0724,0833,12172,024.2,045.3,0.461,754.6,01.17,0.508
2014-12-06 02:07:00,2298E-3,5C000000,-0724,0833,12185,024.2,045.3,0.461,754.6,01.17,0.508
2014-12-06 02:08:00,2302E-3,5C000000,-0724,0832,12120,024.1,045.3,0.461,754.5,01.17,0.508
2014-12-06 02:09:00,2166E-3,5C000000,-0724,0834,12309,024.2,045.4,0.461,754.5,01.17,0.508
2014-12-06 02:10:00,2119E-3,5C000000,-0724,0832,12252,024.2,045.4,0.461,754.5,01.17,0.508
2014-12-06 02:11:00,2219E-3,5C000000,-0724,0833,12274,024.1,045.3,0.461,754.5,01.17,0.508
2014-12-06 02:12:00,2078E-3,5C000000,-0724,0832,12170,024.2,045.3,0.461,754.5,01.17,0.508
2014-12-06 02:13:00,2157E-3,5C000000,-0724,0833,12174,024.1,045.3,0.461,754.4,01.17,0.508
2014-12-06 02:14:00,2085E-3,5C000000,-0724,0833,12219,024.1,045.3,0.461,754.4,01.17,0.508
2014-12-06 02:15:00,2243E-3,5C000000,-0724,0833,12109,024.2,045.3,0.461,754.4,01.17,0.508
2014-12-06 02:16:00,2212E-3,5C000000,-0724,0832,12251,024.1,045.3,0.461,754.4,01.17,0.508
2014-12-06 02:17:00,2069E-3,5C000000,-0724,0833,12258,024.1,045.3,0.461,754.4,01.17,0.508
2014-12-06 02:18:00,2035E-3,5C000000,-0724,0833,12163,024.1,045.4,0.461,754.4,01.17,0.508
2014-12-06 02:19:00,2207E-3,5C000000,-0724,0833,12066,024.2,045.3,0.461,754.4,01.17,0.508
2014-12-06 02:20:00,2173E-3,5C000000,-0724,0833,12203,024.1,045.3,0.461,754.4,01.17,0.508
2014-12-06 02:21:00,2187E-3,5C000000,-0724,0833,12157,024.2,045.3,0.461,754.4,01.17,0.508
2014-12-06 02:22:00,2172E-3,5C000000,-0724,0833,12204,024.1,045.3,0.461,754.4,01.17,0.508
2014-12-06 02:23:00,2180E-3,5C000000,-0724,0833,12181,024.1,045.3,0.461,754.4,01.17,0.508
2014-12-06 02:24:00,2064E-3,5C000000,-0724,0833,12312,024.1,045.3,0.461,754.4,01.17,0.508
2014-12-06 02:25:00,2216E-3,5C000000,-0724,0833,12068,024.1,045.3,0.461,754.4,01.17,0.508
2014-12-06 02:26:00,2157E-3,5C000000,-0724,0833,12194,024.1,045.3,0.461,754.4,01.17,0.508
2014-12-06 02:27:00,2103E-3,5C000000,-0724,0832,12182,024.1,045.3,0.461,754.4,01.17,0.508
2014-12-06 02:28:00,2113E-3,5C000000,-0724,0833,12243,024.1,045.3,0.461,754.4,01.17,0.508
2014-12-06 02:29:00,2110E-3,5C000000,-0724,0834,12141,024.1,045.3,0.461,754.4,01.17,0.508
2014-12-06 02:30:00,2221E-3,5C000000,-0724,0834,12107,024.1,045.3,0.461,754.4,01.17,0.508
2014-12-06 02:31:00,2190E-3,5C000000,-0724,0831,12209,024.2,045.3,0.461,754.3,01.17,0.508
2014-12-06 02:32:00,2162E-3,5C000000,-0724,0833,12159,024.1,045.3,0.461,754.3,01.17,0.508
2014-12-06 02:33:00,2249E-3,5C000000,-0724,0834,12297,024.1,045.4,0.461,754.4,01.17,0.508
2014-12-06 02:34:00,2185E-3,5C000000,-0724,0834,12179,024.1,045.3,0.461,754.4,01.17,0.508
2014-12-06 02:35:00,2135E-3,5C000000,-0724,0833,12241,024.1,045.3,0.461,754.3,01.17,0.508
2014-12-06 02:36:00,2326E-3,5C000000,-0724,0833,12290,024.1,045.3,0.461,754.3,01.17,0.508
2014-12-06 02:37:00,2089E-3,5C000000,-0724,0833,12067,024.1,045.3,0.461,754.3,01.17,0.508
2014-12-06 02:38:00,2176E-3,5C000000,-0724,0833,12168,024.1,045.3,0.461,754.3,01.17,0.508
2014-12-06 02:39:00,2092E-3,5C000000,-0724,0833,12173,024.1,045.3,0.461,754.3,01.17,0.508
2014-12-06 02:40:00,2147E-3,5C000000,-0724,0833,12228,024.1,045.3,0.461,754.4,01.17,0.508
2014-12-06 02:41:00,2274E-3,5C000000,-0724,0833,11979,024.1,045.3,0.461,754.4,01.17,0.508
2014-12-06 02:42:00,2127E-3,5C000000,-0724,0833,12204,024.1,045.3,0.461,754.4,01.17,0.508
2014-12-06 02:43:00,2276E-3,5C000000,-0724,0833,12014,024.1,045.3,0.461,754.3,01.17,0.508
2014-12-06 02:44:00,2191E-3,5C000000,-0724,0834,12129,024.1,045.3,0.461,754.4,01.17,0.508
2014-12-06 02:45:00,2095E-3,5C000000,-0724,0832,12164,024.1,045.4,0.461,754.4,01.17,0.508
2014-12-06 02:46:00,2168E-3,5C000000,-0724,0834,12135,024.1,045.3,0.461,754.4,01.17,0.508
2014-12-06 02:47:00,2102E-3,5C000000,-0724,0833,12166,024.1,045.3,0.461,754.4,01.17,0.508
2014-12-06 02:48:00,2169E-3,5C000000,-0724,0833,12203,024.1,045.3,0.461,754.4,01.17,0.508
2014-12-06 02:49:00,2274E-3,5C000000,-0724,0833,12317,024.1,045.4,0.461,754.4,01.17,0.508
2014-12-06 02:50:00,2137E-3,5C000000,-0724,0833,12205,024.1,045.3,0.461,754.3,01.17,0.508
2014-12-06 02:51:00,2091E-3,5C000000,-0724,0832,12222,024.1,045.3,0.461,754.4,01.17,0.508
2014-12-06 02:52:00,2261E-3,5C000000,-0724,0833,12166,024.1,045.3,0.461,754.4,01.17,0.508
2014-12-06 02:53:00,2177E-3,5C000000,-0724,0833,12217,024.1,045.3,0.461,754.4,01.17,0.508
2014-12-06 02:54:00,2203E-3,5C000000,-0724,0832,12059,024.1,045.3,0.461,754.3,01.17,0.508
2014-12-06 02:55:00,2049E-3,5C000000,-0724,0833,12374,024.1,045.4,0.461,754.3,01.17,0.508
2014-12-06 02:56:00,2152E-3,5C000000,-0724,0832,12212,024.1,045.4,0.461,754.3,01.17,0.508
2014-12-06 02:57:00,2243E-3,5C000000,-0724,0833,12092,024.1,045.3,0.461,754.3,01.17,0.508
2014-12-06 02:58:00,2177E-3,5C000000,-0724,0833,12148,024.1,045.3,0.461,754.3,01.17,0.508
2014-12-06 02:59:00,2279E-3,5C000000,-0724,0833,12212,024.1,045.3,0.461,754.3,01.17,0.508
2014-12-06 03:00:00,2222E-3,5C000000,-0724,0834,12012,024.1,045.3,0.461,754.3,01.17,0.508
2014-12-06 03:01:00,2142E-3,5C000000,-0724,0832,12196,024.1,045.3,0.461,754.3,01.17,0.508
2014-12-06 03:02:00,2250E-3,5C000000,-0724,0833,12141,024.1,045.3,0.461,754.3,01.17,0.508
2014-12-06 03:03:00,2175E-3,5C000000,-0724,0832,12180,024.1,045.3,0.461,754.4,01.17,0.508
2014-12-06 03:04:00,2286E-3,5C000000,-0724,0833,12016,024.1,045.3,0.461,754.3,01.17,0.508
2014-12-06 03:05:00,2190E-3,5C000000,-0724,0833,12332,024.1,045.3,0.461,754.4,01.17,0.508
2014-12-06 03:06:00,2190E-3,5C000000,-0724,0832,12069,024.1,045.3,0.461,754.3,01.17,0.508
2014-12-06 03:07:00,1981E-3,5C000000,-0724,0833,12235,024.1,045.3,0.461,754.3,01.17,0.508
2014-12-06 03:08:00,2048E-3,5C000000,-0724,0832,12293,024.1,045.4,0.461,754.3,01.17,0.508
2014-12-06 03:09:00,2055E-3,5C000000,-0724,0833,12243,024.1,045.4,0.461,754.3,01.17,0.508
2014-12-06 03:10:00,2248E-3,5C000000,-0724,0834,12129,024.1,045.3,0.461,754.3,01.17,0.508
2014-12-06 03:11:00,2120E-3,5C000000,-0724,0832,12021,024.1,045.3,0.461,754.3,01.17,0.508
2014-12-06 03:12:00,2136E-3,5C000000,-0724,0832,12176,024.1,045.3,0.461,754.3,01.17,0.508
2014-12-06 03:13:00,2187E-3,5C000000,-0724,0833,12093,024.1,045.3,0.461,754.3,01.17,0.508
2014-12-06 03:14:00,2274E-3,5C000000,-0724,0834,11947,024.1,045.3,0.461,754.3,01.17,0.508
2014-12-06 03:15:00,2158E-3,5C000000,-0724,0832,12056,024.1,045.3,0.461,754.4,01.17,0.508
2014-12-06 03:16:00,2281E-3,5C000000,-0724,0833,12305,024.1,045.3,0.461,754.4,01.17,0.508
2014-12-06 03:17:00,2322E-3,5C000000,-0724,0833,12177,024.1,045.3,0.461,754.4,01.17,0.508
2014-12-06 03:18:00,2244E-3,5C000000,-0724,0833,12108,024.1,045.3,0.461,754.4,01.17,0.508
2014-12-06 03:19:00,2234E-3,5C000000,-0724,0833,12313,024.1,045.4,0.461,754.4,01.17,0.508
2014-12-06 03:20:00,2241E-3,5C000000,-0724,0834,12430,024.1,045.4,0.461,754.4,01.17,0.508
2014-12-06 03:21:00,2174E-3,5C000000,-0724,0833,12143,024.1,045.3,0.461,754.4,01.17,0.508
2014-12-06 03:22:00,2257E-3,5C000000,-0724,0833,11826,024.1,045.3,0.461,754.4,01.17,0.508
2014-12-06 03:23:00,2080E-3,5C000000,-0724,0832,12039,024.1,045.3,0.461,754.4,01.17,0.508
2014-12-06 03:24:00,2349E-3,5C000000,-0724,0833,12040,024.1,045.4,0.461,754.4,01.17,0.508
2014-12-06 03:25:00,2235E-3,5C000000,-0724,0833,12086,024.1,045.3,0.461,754.4,01.17,0.508
2014-12-06 03:26:00,2207E-3,5C000000,-0724,0834,12210,024.1,045.3,0.461,754.4,01.17,0.508
2014-12-06 03:27:00,2131E-3,5C000000,-0724,0833,12228,024.1,045.4,0.461,754.4,01.17,0.508
2014-12-06 03:28:00,2197E-3,5C000000,-0724,0833,12119,024.1,045.3,0.461,754.3,01.17,0.508
2014-12-06 03:29:00,2132E-3,5C000000,-0724,0833,12187,024.1,045.3,0.461,754.3,01.17,0.508
2014-12-06 03:30:00,2179E-3,5C000000,-0724,0834,12259,024.1,045.3,0.461,754.3,01.17,0.508
2014-12-06 03:31:00,2127E-3,5C000000,-0724,0834,12074,024.1,045.3,0.460,754.3,01.17,0.508
2014-12-06 03:32:00,2229E-3,5C000000,-0724,0832,12301,024.1,045.3,0.461,754.3,01.17,0.508
2014-12-06 03:33:00,2178E-3,5C000000,-0724,0833,12201,024.1,045.3,0.460,754.3,01.17,0.508
2014-12-06 03:34:00,2180E-3,5C000000,-0724,0833,12160,024.1,045.3,0.461,754.3,01.17,0.508
2014-12-06 03:35:00,2122E-3,5C000000,-0724,0833,12205,024.1,045.3,0.461,754.3,01.17,0.508
2014-12-06 03:36:00,2137E-3,5C000000,-0724,0833,12072,024.1,045.3,0.461,754.3,01.17,0.508
2014-12-06 03:37:00,2115E-3,5C000000,-0724,0834,12277,024.1,045.4,0.461,754.3,01.17,0.508
2014-12-06 03:38:00,2002E-3,5C000000,-0724,0833,12201,024.0,045.4,0.461,754.3,01.17,0.508
2014-12-06 03:39:00,1960E-3,5C000000,-0724,0833,12309,024.1,045.3,0.461,754.3,01.17,0.508
2014-12-06 03:40:00,2208E-3,5C000000,-0724,0833,12128,024.1,045.3,0.461,754.3,01.17,0.508
2014-12-06 03:41:00,2169E-3,5C000000,-0724,0832,11970,024.1,045.3,0.461,754.2,01.17,0.508
2014-12-06 03:42:00,2032E-3,5C000000,-0724,0833,11945,024.1,045.3,0.461,754.2,01.17,0.508
2014-12-06 03:43:00,2223E-3,5C000000,-0724,0834,12176,024.1,045.3,0.461,754.2,01.17,0.508
2014-12-06 03:44:00,2306E-3,5C000000,-0724,0833,12199,024.1,045.3,0.461,754.2,01.17,0.508
2014-12-06 03:45:00,2025E-3,5C000000,-0724,0833,12233,024.1,045.3,0.461,754.2,01.17,0.508
2014-12-06 03:46:00,2175E-3,5C000000,-0724,0833,12098,024.1,045.3,0.461,754.2,01.17,0.508
2014-12-06 03:47:00,2158E-3,5C000000,-0724,0833,11971,024.1,045.3,0.461,754.2,01.17,0.508
2014-12-06 03:48:00,2199E-3,5C000000,-0724,0834,12055,024.1,045.4,0.461,754.2,01.17,0.508
2014-12-06 03:49:00,2046E-3,5C000000,-0724,0833,12149,024.1,045.4,0.461,754.2,01.17,0.508
2014-12-06 03:50:00,2120E-3,5C000000,-0724,0834,12011,024.1,045.3,0.461,754.2,01.17,0.508
2014-12-06 03:51:00,2253E-3,5C000000,-0724,0833,12316,024.1,045.4,0.461,754.2,01.17,0.508
2014-12-06 03:52:00,2140E-3,5C000000,-0724,0833,12065,024.1,045.3,0.461,754.2,01.17,0.508
2014-12-06 03:53:00,2152E-3,5C000000,-0724,0833,12072,024.1,045.3,0.461,754.2,01.17,0.508
2014-12-06 03:54:00,2140E-3,5C000000,-0724,0834,12337,024.1,045.3,0.461,754.2,01.17,0.508
2014-12-06 03:55:00,2180E-3,5C000000,-0724,0833,12113,024.1,045.3,0.461,754.2,01.17,0.508
2014-12-06 03:56:00,2186E-3,5C000000,-0724,0833,12215,024.1,045.3,0.461,754.2,01.17,0.508
2014-12-06 03:57:00,2271E-3,5C000000,-0724,0833,12073,024.0,045.3,0.461,754.2,01.17,0.508
2014-12-06 03:58:00,2107E-3,5C000000,-0724,0833,12064,024.1,045.3,0.461,754.2,01.17,0.508
2014-12-06 03:59:00,2148E-3,5C000000,-0724,0834,12254,024.1,045.4,0.461,754.2,01.17,0.508
2014-12-06 04:00:00,2144E-3,5C000000,-0724,0834,12192,024.1,045.3,0.461,754.2,01.17,0.508
2014-12-06 04:01:00,2154E-3,5C000000,-0724,0833,12341,024.1,045.3,0.461,754.1,01.17,0.508
2014-12-06 04:02:00,2244E-3,5C000000,-0724,0833,12196,024.0,045.3,0.461,754.1,01.17,0.508
2014-12-06 04:03:00,2227E-3,5C000000,-0724,0833,12090,024.0,045.3,0.461,754.1,01.17,0.508
2014-12-06 04:04:00,2158E-3,5C000000,-0724,0833,12247,024.0,045.3,0.461,754.1,01.17,0.508
2014-12-06 04:05:00,2171E-3,5C000000,-0724,0833,12146,024.0,045.3,0.461,754.1,01.17,0.508
2014-12-06 04:06:00,2095E-3,5C000000,-0724,0833,12230,024.1,045.3,0.461,754.1,01.17,0.508
2014-12-06 04:07:00,2089E-3,5C000000,-0724,0834,12301,024.0,045.3,0.461,754.2,01.17,0.508
2014-12-06 04:08:00,2206E-3,5C000000,-0724,0833,12173,024.0,045.3,0.461,754.2,01.17,0.508
2014-12-06 04:09:00,2220E-3,5C000000,-0724,0834,12044,024.0,045.3,0.461,754.2,01.17,0.508
2014-12-06 04:10:00,2366E-3,5C000000,-0724,0833,12134,024.0,045.3,0.461,754.1,01.17,0.508
2014-12-06 04:11:00,2361E-3,5C000000,-0724,0834,12206,024.0,045.3,0.461,754.1,01.17,0.508
2014-12-06 04:12:00,2099E-3,5C000000,-0724,0833,12211,024.0,045.3,0.461,754.1,01.17,0.508
2014-12-06 04:13:00,2286E-3,5C000000,-0724,0834,12041,024.0,045.4,0.461,754.2,01.17,0.508
2014-12-06 04:14:00,2235E-3,5C000000,-0724,0833,12214,024.0,045.3,0.461,754.1,01.17,0.508
2014-12-06 04:15:00,2182E-3,5C000000,-0724,0833,12267,024.0,045.3,0.461,754.2,01.17,0.508
2014-12-06 04:16:00,2198E-3,5C000000,-0724,0833,12029,024.0,045.3,0.461,754.2,01.17,0.508
2014-12-06 04:17:00,2147E-3,5C000000,-0724,0833,12390,024.0,045.3,0.461,754.1,01.17,0.508
2014-12-06 04:18:00,2040E-3,5C000000,-0724,0833,12275,024.0,045.4,0.461,754.1,01.17,0.508
2014-12-06 04:19:00,2288E-3,5C000000,-0724,0834,12047,024.0,045.3,0.461,754.1,01.17,0.508
2014-12-06 04:20:00,2222E-3,5C000000,-0724,0833,12273,024.0,045.3,0.461,754.1,01.17,0.508